Weather History for Osceola, WI

Change the Weather History Date:

Tuesday, February 12, 2013

  Actual Average (KMSP) Record (KMSP)
Temperature  
Mean Temperature 20 °F 20 °F  
Max Temperature 33 °F 28 °F 59 °F (1990)
Min Temperature 8 °F 12 °F -30 °F (1875)
Degree Days  
Heating Degree Days 44 45  
Month to date heating degree days 562  
Since 1 July heating degree days 5116  
Cooling Degree Days 0 0  
Month to date cooling degree days 0  
Year to date cooling degree days 0  
Moisture  
Dew Point 17 °F    
Average Humidity 80    
Maximum Humidity 93    
Minimum Humidity 64    
Precipitation  
Precipitation 0.05 in 0.03 in 0.42 in (1984)
Month to date precipitation 0.28  
Year to date precipitation 1.18  
Snow  
Snow 0.00 in 0.30 in 3.20 in (1940)
Month to date snowfall 3.2  
Since 1 July snowfall 37.2  
Snow Depth -    
Sea Level Pressure  
Sea Level Pressure 29.92 in    
Wind  
Wind Speed 7 mph (SW)    
Max Wind Speed 14 mph    
Max Gust Speed -    
Visibility 10 miles    
Events Snow    
T = Trace of Precipitation, MM = Missing Value Source: NWS Daily Summary

Daily Weather History Graph

Daily Weather History Graph

Search for Another Location

Airport:

Trip Planner

Search our weather history database for the weather conditions in past years. The results will help you decide how hot, cold, wet, or windy it might be!

Date:

Astronomy

Feb. 12, 2013 Rise Set
Actual Time 7:16 AM CST 5:34 PM CST
Civil Twilight 6:45 AM CST 6:04 PM CST
Nautical Twilight 6:11 AM CST 6:39 PM CST
Astronomical Twilight 5:36 AM CST 7:13 PM CST
Moon 8:03 AM CST (2/12) 8:47 PM CST (2/12)
Length of Visible Light 11h 19m
Length of Day
10h 18m
Waxing Crescent, 7% of the Moon is Illuminated
Feb 12
Waxing Crescent
Feb 17
First Quarter
Feb 25
Full
Mar 4
Last Quarter
Mar 11
New

Hourly Weather History & Observations

Time (CST) Temp. Windchill Dew Point Humidity Pressure Visibility Wind Dir Wind Speed Gust Speed Precip Events Conditions
12:15 AM 19.4 °F 8.6 °F 14.0 °F 80% 30.03 in 10.0 mi West 9.2 mph - N/A Snow Light Snow
12:35 AM 19.4 °F 9.5 °F 14.0 °F 80% 30.03 in 10.0 mi West 8.1 mph - N/A   Overcast
12:55 AM 17.6 °F 8.2 °F 12.2 °F 79% 30.03 in 10.0 mi West 6.9 mph - N/A   Overcast
1:15 AM 15.8 °F 6.1 °F 12.2 °F 86% 30.03 in 10.0 mi West 6.9 mph - N/A   Scattered Clouds
1:35 AM 14.0 °F 5.1 °F 12.2 °F 93% 30.02 in 10.0 mi West 5.8 mph - N/A Snow Light Snow
1:55 AM 14.0 °F 3.9 °F 12.2 °F 93% 30.03 in 10.0 mi West 6.9 mph - N/A   Overcast
2:15 AM 12.2 °F 0.7 °F 10.4 °F 92% 30.03 in 10.0 mi WSW 8.1 mph - N/A   Scattered Clouds
2:35 AM 12.2 °F 1.7 °F 10.4 °F 92% 30.03 in 10.0 mi SW 6.9 mph - N/A   Clear
2:55 AM 10.4 °F 2.2 °F 8.6 °F 92% 30.03 in 10.0 mi SW 4.6 mph - N/A   Clear
3:15 AM 8.6 °F 0.1 °F 6.8 °F 92% 30.02 in 10.0 mi SW 4.6 mph - N/A   Clear
3:35 AM 10.4 °F -0.4 °F 8.6 °F 92% 30.02 in 10.0 mi SW 6.9 mph - N/A   Clear
3:55 AM 12.2 °F 1.7 °F 10.4 °F 92% 30.02 in 10.0 mi SW 6.9 mph - N/A   Clear
4:15 AM 10.4 °F -0.4 °F 8.6 °F 92% 30.01 in 10.0 mi SW 6.9 mph - N/A   Clear
4:35 AM 12.2 °F 2.9 °F 8.6 °F 85% 30.02 in 10.0 mi SW 5.8 mph - N/A   Clear
5:15 AM 12.2 °F 6.1 °F 10.4 °F 92% 30.02 in 10.0 mi SW 3.5 mph - N/A   Mostly Cloudy
5:35 AM 14.0 °F 8.2 °F 12.2 °F 93% 30.02 in 10.0 mi SW 3.5 mph - N/A Snow Light Snow
5:55 AM 14.0 °F - 12.2 °F 93% 30.01 in 10.0 mi Calm Calm - N/A   Overcast
6:15 AM 15.8 °F - 12.2 °F 86% 30.01 in 10.0 mi Calm Calm - N/A   Overcast
6:35 AM 15.8 °F 7.2 °F 14.0 °F 93% 30.00 in 10.0 mi SSE 5.8 mph - N/A   Overcast
6:55 AM 17.6 °F 10.7 °F 14.0 °F 86% 30.00 in 10.0 mi SSE 4.6 mph - N/A   Overcast
7:15 AM 17.6 °F 10.7 °F 14.0 °F 86% 29.99 in 10.0 mi South 4.6 mph - N/A   Overcast
7:35 AM 17.6 °F 12.3 °F 14.0 °F 86% 29.99 in 10.0 mi South 3.5 mph - N/A   Overcast
7:55 AM 17.6 °F 9.3 °F 14.0 °F 86% 29.99 in 10.0 mi South 5.8 mph - N/A   Mostly Cloudy
8:15 AM 14.0 °F 5.1 °F 12.2 °F 93% 29.98 in 10.0 mi SSE 5.8 mph - N/A   Scattered Clouds
8:35 AM 17.6 °F 8.2 °F 12.2 °F 79% 29.98 in 10.0 mi SSE 6.9 mph - N/A   Clear
8:55 AM 19.4 °F 10.4 °F 14.0 °F 80% 29.97 in 10.0 mi South 6.9 mph - N/A   Clear
9:15 AM 19.4 °F 10.4 °F 15.8 °F 86% 29.97 in 10.0 mi SSE 6.9 mph - N/A   Clear
9:35 AM 21.2 °F 11.7 °F 15.8 °F 80% 29.96 in 10.0 mi SSE 8.1 mph - N/A   Clear
9:55 AM 21.2 °F 11.7 °F 17.6 °F 86% 29.96 in 10.0 mi SSE 8.1 mph - N/A   Clear
10:15 AM 23.0 °F 13.1 °F 17.6 °F 80% 29.95 in 10.0 mi SSE 9.2 mph - N/A   Clear
10:35 AM 26.6 °F 15.7 °F 19.4 °F 74% 29.94 in 10.0 mi South 12.7 mph - N/A   Clear
10:55 AM 26.6 °F 15.2 °F 19.4 °F 74% 29.93 in 10.0 mi South 13.8 mph - N/A   Clear
11:15 AM 28.4 °F 17.5 °F 21.2 °F 74% 29.93 in 10.0 mi South 13.8 mph - N/A   Clear
11:35 AM 28.4 °F 18.0 °F 21.2 °F 74% 29.92 in 10.0 mi South 12.7 mph - N/A   Clear
11:55 AM 28.4 °F 18.5 °F 21.2 °F 74% 29.91 in 10.0 mi South 11.5 mph - N/A   Clear
12:15 PM 30.2 °F 22.6 °F 21.2 °F 69% 29.90 in 10.0 mi SSW 8.1 mph - N/A   Clear
12:35 PM 32.0 °F 25.6 °F 21.2 °F 64% 29.89 in 10.0 mi SW 6.9 mph - 0.01 in   Clear
12:55 PM 32.0 °F 24.8 °F 21.2 °F 64% 29.88 in 10.0 mi SSW 8.1 mph - 0.02 in   Clear
1:15 PM 32.0 °F 25.6 °F 23.0 °F 69% 29.87 in 10.0 mi SSW 6.9 mph - 0.01 in   Clear
1:35 PM 32.0 °F 24.2 °F 23.0 °F 69% 29.86 in 10.0 mi SW 9.2 mph - 0.01 in   Clear
1:55 PM 32.0 °F 25.6 °F 23.0 °F 69% 29.86 in 10.0 mi SSW 6.9 mph - 0.02 in   Clear
2:15 PM 33.8 °F 26.4 °F 23.0 °F 65% 29.85 in 10.0 mi SSW 9.2 mph - N/A   Clear
2:35 PM 33.8 °F 27.7 °F 23.0 °F 65% 29.84 in 10.0 mi SSW 6.9 mph - N/A   Clear
2:55 PM 33.8 °F 26.4 °F 23.0 °F 65% 29.84 in 10.0 mi SW 9.2 mph - 0.01 in   Clear
3:15 PM 33.8 °F 25.3 °F 23.0 °F 65% 29.84 in 10.0 mi SW 11.5 mph - N/A   Clear
3:35 PM 33.8 °F 24.8 °F 23.0 °F 65% 29.84 in 10.0 mi SW 12.7 mph - N/A   Clear
3:55 PM 33.8 °F 26.4 °F 23.0 °F 65% 29.84 in 10.0 mi SW 9.2 mph - N/A   Clear
4:15 PM 32.0 °F 23.0 °F 23.0 °F 69% 29.84 in 10.0 mi SW 11.5 mph - N/A   Clear
4:35 PM 32.0 °F 24.8 °F 23.0 °F 69% 29.84 in 10.0 mi SW 8.1 mph - N/A   Clear
4:55 PM 32.0 °F 24.2 °F 23.0 °F 69% 29.84 in 10.0 mi West 9.2 mph - N/A   Clear
5:15 PM 32.0 °F 23.0 °F 21.2 °F 64% 29.84 in 10.0 mi WSW 11.5 mph - N/A   Clear
5:35 PM 30.2 °F 21.9 °F 21.2 °F 69% 29.84 in 10.0 mi WSW 9.2 mph - N/A   Clear
5:55 PM 28.4 °F 21.2 °F 21.2 °F 74% 29.85 in 10.0 mi WSW 6.9 mph - N/A   Clear
6:15 PM 28.4 °F 22.2 °F 21.2 °F 74% 29.85 in 10.0 mi WSW 5.8 mph - N/A   Clear
6:35 PM 28.4 °F 24.6 °F 21.2 °F 74% 29.84 in 10.0 mi SW 3.5 mph - N/A   Clear
6:55 PM 26.6 °F 20.0 °F 21.2 °F 80% 29.85 in 10.0 mi SW 5.8 mph - N/A   Clear
7:15 PM 26.6 °F 21.2 °F 21.2 °F 80% 29.84 in 10.0 mi SW 4.6 mph - N/A   Clear
7:35 PM 24.8 °F 17.9 °F 19.4 °F 80% 29.84 in 10.0 mi WSW 5.8 mph - N/A   Clear
8:15 PM 23.0 °F 15.8 °F 19.4 °F 86% 29.84 in 10.0 mi WSW 5.8 mph - N/A   Clear
8:35 PM 23.0 °F 15.8 °F 19.4 °F 86% 29.84 in 10.0 mi West 5.8 mph - N/A   Clear
8:55 PM 23.0 °F 14.7 °F 19.4 °F 86% 29.84 in 10.0 mi WSW 6.9 mph - N/A   Clear
9:15 PM 24.8 °F 16.1 °F 21.2 °F 86% 29.84 in 10.0 mi West 8.1 mph - N/A   Clear
9:35 PM 24.8 °F 16.1 °F 19.4 °F 80% 29.84 in 10.0 mi WSW 8.1 mph - N/A   Scattered Clouds
9:55 PM 23.0 °F 13.9 °F 19.4 °F 86% 29.83 in 10.0 mi WSW 8.1 mph - N/A   Mostly Cloudy
10:15 PM 23.0 °F 14.7 °F 19.4 °F 86% 29.82 in 10.0 mi WSW 6.9 mph - N/A   Mostly Cloudy
10:35 PM 23.0 °F 15.8 °F 19.4 °F 86% 29.82 in 10.0 mi WSW 5.8 mph - N/A   Mostly Cloudy
10:55 PM 23.0 °F 18.4 °F 19.4 °F 86% 29.82 in 10.0 mi WSW 3.5 mph - N/A   Overcast
11:15 PM 23.0 °F 15.8 °F 19.4 °F 86% 29.81 in 10.0 mi SW 5.8 mph - N/A   Overcast
11:35 PM 23.0 °F 17.0 °F 19.4 °F 86% 29.81 in 10.0 mi WSW 4.6 mph - N/A   Overcast
11:55 PM 23.0 °F 17.0 °F 19.4 °F 86% 29.80 in 10.0 mi SW 4.6 mph - N/A   Overcast